User: anonymous   Login
Location: Unspecified
(0.0000°N, 0.0000°E)
Time: 12:57:10
(UTC+00:00)
Language:

SJ-7 - Orbit

View from above orbital plane
View from above orbital plane
View from above satellite
View from above satellite

Ground track
Ground track

The orbit data is extracted from the following two-line orbital elements,

1 28737U 05024A   18294.07826411 -.00000054  00000-0  35364-6 0  9998
2 28737  97.6662 295.1249 0035053 110.6138 249.8855 14.95715250728325
Epoch (UTC): 21 October 2018 01:52:42
Eccentricity: 0.0035053
inclination: 97.6662°
perigee height: 556 km
apogee height: 604 km
right ascension of ascending node: 295.1249°
argument of perigee: 110.6138°
revolutions per day: 14.95715250
mean anomaly at epoch: 249.8855°
orbit number at epoch: 72832

The dashed part of the orbit path shows where the satellite is in the earth's shadow,  

DLR